Weather Roundup
Issued by NWS

Home | Current Version | Previous Version | Graphics & Text | Print | Product List | Glossary Off
Versions: 1 2 3 4 5 6 7 8 9 10 11 12 13 14 15 16 17 18 19 20 21 22 23 24 25 26 27 28 29 30 31 32 33 34 35 36 37 38 39 40 41 42 43 44 45 46 47 48 49 50

000
NZUS93 KARX 300159
HRRWXR

CURRENT HOURLY OBSERVATIONS ACROSS
MUCH OF THE UPPER MISSISSIPPI VALLEY
NATIONAL WEATHER SERVICE LA CROSSE WI
900 PM CDT WED MAR 29 2017


...SOUTHEAST MINNESOTA...


CITY           SKY/WX    TMP DP  RH WIND       PRES   REMARKS
ROCHESTER      LGT RAIN  39  38  96 E17G26    30.09F WCI  30
ROCHESTER/MAYO CLOUDY    39  39  99 E12G21    30.11F WCI  32
WINONA         LGT RAIN  41  37  87 E13       30.15F
AUSTIN         LGT RAIN  39  36  87 E15       30.06F WCI  31
ALBERT LEA     RAIN      37  37 100 E18G26    30.04F WCI  27
DODGE CENTER   LGT RAIN  37  37 100 E21       30.09S WCI  27
PRESTON        LGT RAIN  38  36  89 E17G23    30.09F WCI  29
OWATONNA       LGT RAIN  39  37  93 E15G21    30.08F WCI  31
FARIBAULT      LGT RAIN  39  39 100 E14G21    30.10F WCI  31
$$

...ELSEWHERE IN MINNESOTA...


CITY           SKY/WX    TMP DP  RH WIND       PRES   REMARKS
MINNEAPOLIS    LGT RAIN  44  38  79 E16       30.14F
INTNL FALLS    CLEAR     41  29  62 SE9       30.11R
DULUTH         PTCLDY    32  27  81 E12       30.19S WCI  23
RED WING       LGT RAIN  43  39  87 E10       30.14F
REDWOOD FALLS  LGT RAIN  41  37  86 E12       30.08F
MANKATO        LGT RAIN  40  37  89 E17       30.08F WCI  31
WORTHINGTON    LGT RAIN  37  35  92 E20       30.01F WCI  27
FAIRMONT       LGT RAIN  39  37  92 E14       30.04F WCI  31
$$

...SOUTHWEST WISCONSIN...


CITY           SKY/WX    TMP DP  RH WIND       PRES   REMARKS
LA CROSSE      LGT RAIN  43  38  82 E14G21    30.15S
PRAIRIE DU CHI DRIZZLE   38  38  97 NE8       30.10F WCI  33
BOSCOBEL       RAIN      42  38  85 E12G20    30.12S FOG
LONE ROCK      LGT RAIN  42  37  82 E17G24    30.13R
PLATTEVILLE    CLOUDY    39  39  98 NE20G25   30.07R WCI  30
FORT MC COY    LGT RAIN  40  38  93 E9        30.17F WCI  34
MAUSTON-NEW LI LGT RAIN  41  35  80 NE6       30.17S
VIROQUA        CLOUDY    40  38  93 E17       30.12S WCI  32
WIS DELLS      CLOUDY    41  30  66 E10       30.16R
$$

...ELSEWHERE IN WISCONSIN...


CITY           SKY/WX    TMP DP  RH WIND       PRES   REMARKS
MILWAUKEE      LGT RAIN  38  34  85 N15       30.17F WCI  29
MADISON        LGT RAIN  40  35  83 E15       30.14S WCI  32
GREEN BAY      CLOUDY    38  31  76 NE6       30.25R WCI  33
EAU CLAIRE     NOT AVBL
BLACK RVR FLS  RAIN      41  40  98 E10       30.18S
MEDFORD        CLOUDY    39  31  71 SE5       30.20R
WAUSAU         CLOUDY    40  27  59 SE9       30.20S WCI  34
WIS RAPIDS     LGT RAIN  37  37 100 E10       30.22S WCI  30
MARSHFIELD     LGT RAIN  38  34  85 E9        30.18F FOG     WCI  31
RICE LAKE      CLOUDY    45  33  65 CALM      30.19S
$$

...NORTHEAST IOWA...


CITY           SKY/WX    TMP DP  RH WIND       PRES   REMARKS
WATERLOO       CLOUDY    40  37  89 E26G33    29.98F FOG     WCI  29
DUBUQUE        CLOUDY    39  37  92 E16G32    30.03F FOG     WCI  30
DECORAH        LGT RAIN  39  37  93 E21G28    30.06F WCI  29
MASON CITY     LGT RAIN  39  36  89 E23G30    30.03F WCI  28
CHARLES CITY   CLOUDY    39  39 100 E20G30    30.04S WCI  30
OELWEIN        LGT RAIN  39  39 100 E22       30.01F WCI  29
$$

...ELSEWHERE IN IOWA...


CITY           SKY/WX    TMP DP  RH WIND       PRES   REMARKS
DES MOINES     TSTM      44  42  93 E18G29    29.86S FOG
IOWA CITY      LGT RAIN  44  40  85 E15G25    29.94F
FORT DODGE     CLOUDY    39  36  87 E29G35    29.95S WCI  28
MARSHALLTOWN   CLOUDY    41  39  93 E29G36    29.92F FOG
CEDAR RAPIDS   LGT RAIN  41  32  70 E23G32    29.93F
$$

...NORTHERN ILLINOIS...


CITY           SKY/WX    TMP DP  RH WIND       PRES   REMARKS
CHICAGO-OHARE  LGT RAIN  44  38  79 NE13      30.10R
CHICAGO-MIDWAY LGT RAIN  47  39  74 NE16G23   30.08R
MOLINE         LGT RAIN  44  40  85 E22G28    29.96F
ROCKFORD       CLOUDY    42  37  82 NE17G30   30.08F
PEORIA         CLOUDY    50  46  86 E15       29.93S
$$

NOTE: "FAIR" INDICATES FEW OR NO CLOUDS BELOW 12,000 FEET WITH NO
SIGNIFICANT WEATHER AND/OR OBSTRUCTIONS TO VISIBILITY. WIND
SPEEDS ARE IN MILES-PER-HOUR.




USA.gov is the U.S. government's official web portal to all federal, state and local government web resources and services.